Weather History for KMYL - February, 2014

Change the Weather History Date:

Wednesday, February 19, 2014

  Actual Average Record
Temperature  
Mean Temperature 23 °F 23 °F  
Max Temperature 35 °F 34 °F 51 °F (1972)
Min Temperature 11 °F 11 °F -23 °F (1942)
Degree Days  
Heating Degree Days 42 42  
Month to date heating degree days 785 828  
Since 1 July heating degree days 5677 6302  
Cooling Degree Days 0 0  
Month to date cooling degree days 0 0  
Year to date cooling degree days 0 0  
Moisture  
Dew Point 20 °F    
Average Humidity 76    
Maximum Humidity 92    
Minimum Humidity 60    
Precipitation  
Precipitation 0.16 in 0.06 in 1.28 in (1968)
Month to date precipitation 2.54 1.20  
Year to date precipitation 4.20 2.93  
Sea Level Pressure  
Sea Level Pressure 29.86 in    
Wind  
Wind Speed 5 mph (WSW)    
Max Wind Speed 24 mph    
Max Gust Speed 33 mph    
Visibility 6 miles    
Events Snow    
T = Trace of Precipitation, MM = Missing Value Source: NWS Daily Summary

Daily Weather History Graph

Daily Weather History Graph

Search for Another Location

Airport or City:

Trip Planner

Search our weather history database for the weather conditions in past years. The results will help you decide how hot, cold, wet, or windy it might be!

Date:

Astronomy

Feb. 19, 2014 Rise Set
Actual Time 7:38 AM MST 6:18 PM MST
Civil Twilight 7:08 AM MST 6:48 PM MST
Nautical Twilight 6:34 AM MST 7:22 PM MST
Astronomical Twilight 6:00 AM MST 7:56 PM MST
Moon 11:31 PM MST (2/19) 9:33 AM MST (2/19)
Length of Visible Light 11h 39m
Length of Day
10h 39m
Waning Gibbous, 79% of the Moon is Illuminated
Feb 19
Waning Gibbous
Feb 22
Last Quarter
Mar 1
New
Mar 8
First Quarter
Mar 16
Full

Hourly Weather History & Observations

Time (MST) Temp. Windchill Dew Point Humidity Pressure Visibility Wind Dir Wind Speed Gust Speed Precip Events Conditions
12:13 AM 33.1 °F 23.9 °F 28.9 °F 85% 29.68 in 2.0 mi WSW 12.7 mph 19.6 mph 0.01 in Snow Light Snow
12:20 AM 33.1 °F 21.5 °F 28.0 °F 82% 29.69 in 1.5 mi WSW 19.6 mph - 0.01 in Snow Light Snow
12:23 AM 33.1 °F 22.2 °F 28.9 °F 85% 29.69 in 0.8 mi WSW 17.3 mph - 0.02 in Snow Light Snow
12:34 AM 32.0 °F 22.1 °F 28.0 °F 85% 29.69 in 1.2 mi WSW 13.8 mph 23.0 mph 0.04 in Snow Light Snow
12:37 AM 32.0 °F 21.6 °F 28.0 °F 85% 29.70 in 3.0 mi WSW 15.0 mph 25.3 mph 0.04 in Snow Light Snow
12:44 AM 32.0 °F 19.2 °F 28.0 °F 85% 29.70 in 1.5 mi WSW 23.0 mph 33.4 mph 0.04 in Snow Light Snow
12:51 AM 30.9 °F 18.4 °F 27.0 °F 85% 29.75 in 1.0 mi WSW 20.7 mph 33.4 mph 0.05 in Snow Light Snow
1:00 AM 30.9 °F 19.8 °F 26.1 °F 82% 29.69 in 1.2 mi WSW 16.1 mph 28.8 mph 0.00 in Snow Light Snow
1:06 AM 30.9 °F 21.2 °F 25.0 °F 79% 29.69 in 3.0 mi West 12.7 mph 28.8 mph 0.00 in Snow Light Snow
1:20 AM 30.9 °F 22.8 °F 24.1 °F 76% 29.69 in 9.0 mi WSW 9.2 mph - 0.00 in   Overcast
1:35 AM 30.9 °F 22.2 °F 24.1 °F 76% 29.70 in 2.5 mi West 10.4 mph 17.3 mph 0.01 in Snow Light Snow
1:51 AM 30.0 °F 20.5 °F 25.0 °F 82% 29.76 in 1.2 mi WSW 11.5 mph 19.6 mph 0.01 in Snow Light Snow
1:59 AM 30.0 °F 26.5 °F 25.0 °F 82% 29.71 in 1.0 mi Variable 3.5 mph 19.6 mph 0.01 in Snow Light Snow
2:06 AM 30.0 °F 23.2 °F 26.1 °F 85% 29.71 in 0.8 mi WSW 6.9 mph - 0.01 in Snow Light Snow
2:18 AM 28.9 °F 22.8 °F 26.1 °F 89% 29.72 in 0.8 mi WSW 5.8 mph - 0.03 in Snow Light Snow
2:51 AM 28.9 °F 21.9 °F 27.0 °F 92% 29.76 in 0.8 mi SE 6.9 mph - 0.07 in Snow Light Snow
2:55 AM 28.9 °F 21.1 °F 26.1 °F 89% 29.70 in 1.2 mi ESE 8.1 mph - 0.00 in Snow Light Snow
3:01 AM 28.0 °F 22.8 °F 26.1 °F 92% 29.71 in 3.0 mi ESE 4.6 mph - 0.00 in Snow Light Snow
3:10 AM 28.0 °F 21.7 °F 26.1 °F 92% 29.73 in 8.0 mi SSW 5.8 mph - 0.00 in Snow Light Snow
3:19 AM 27.0 °F 21.6 °F 25.0 °F 92% 29.72 in 10.0 mi South 4.6 mph - 0.00 in   Overcast
3:26 AM 27.0 °F 23.0 °F 25.0 °F 92% 29.73 in 10.0 mi SSE 3.5 mph - 0.00 in   Overcast
3:51 AM 28.0 °F 22.8 °F 24.1 °F 85% 29.79 in 10.0 mi West 4.6 mph - 0.00 in   Mostly Cloudy
4:51 AM 26.1 °F 17.6 °F 18.0 °F 71% 29.82 in 10.0 mi WNW 8.1 mph - N/A   Clear
5:51 AM 24.1 °F 15.2 °F 14.0 °F 65% 29.86 in 10.0 mi NW 8.1 mph - N/A   Clear
6:51 AM 19.0 °F - 12.0 °F 74% 29.90 in 10.0 mi Calm Calm - N/A   Clear
7:51 AM 15.1 °F 9.4 °F 10.9 °F 84% 29.93 in 10.0 mi North 3.5 mph - N/A   Clear
8:51 AM 15.1 °F - 10.9 °F 84% 29.95 in 10.0 mi Calm Calm - N/A   Clear
9:51 AM 21.0 °F - 15.1 °F 78% 29.94 in 10.0 mi Calm Calm - N/A   Mostly Cloudy
10:51 AM 26.1 °F - 15.1 °F 63% 29.92 in 10.0 mi Calm Calm - N/A   Partly Cloudy
11:26 AM 27.0 °F 15.6 °F 15.1 °F 61% 29.87 in 10.0 mi West 13.8 mph 20.7 mph N/A   Mostly Cloudy
11:51 AM 27.0 °F 16.7 °F 15.1 °F 61% 29.94 in 10.0 mi West 11.5 mph - N/A   Mostly Cloudy
12:51 PM 27.0 °F 16.7 °F 15.1 °F 61% 29.96 in 10.0 mi WSW 11.5 mph - N/A   Overcast
1:10 PM 26.1 °F 14.5 °F 15.1 °F 63% 29.88 in 1.5 mi West 13.8 mph 19.6 mph 0.00 in Snow Light Snow
1:12 PM 25.0 °F 12.6 °F 15.1 °F 66% 29.88 in 0.8 mi WSW 15.0 mph 20.7 mph 0.00 in Snow Light Snow
1:24 PM 24.1 °F 13.7 °F 18.0 °F 77% 29.89 in 0.5 mi WSW 10.4 mph - 0.01 in Snow Snow
1:41 PM 24.1 °F 18.2 °F 19.0 °F 81% 29.88 in 1.0 mi WSW 4.6 mph - 0.02 in Snow Light Snow
1:44 PM 25.0 °F 17.1 °F 19.0 °F 78% 29.88 in 2.5 mi SW 6.9 mph - 0.02 in Snow Light Snow
1:49 PM 24.8 °F 17.9 °F 19.4 °F 80% 29.88 in 9.0 mi WSW 5.8 mph - 0.02 in   Mostly Cloudy
1:50 PM 25.0 °F 17.1 °F 19.0 °F 78% 29.97 in 9.0 mi WSW 6.9 mph - 0.02 in   Mostly Cloudy
2:51 PM 27.0 °F 18.7 °F 16.0 °F 63% 29.96 in 7.0 mi WSW 8.1 mph - 0.00 in Snow Light Snow
3:16 PM 25.0 °F 11.3 °F 17.1 °F 72% 29.90 in 1.5 mi West 18.4 mph 26.5 mph 0.00 in Snow Light Snow
3:20 PM 25.0 °F 13.6 °F 19.0 °F 78% 29.90 in 0.8 mi WNW 12.7 mph 26.5 mph 0.00 in Snow Light Snow
3:31 PM 25.0 °F 13.6 °F 19.9 °F 81% 29.91 in 1.0 mi West 12.7 mph 23.0 mph 0.01 in Snow Light Snow
3:37 PM 25.0 °F 14.2 °F 19.9 °F 81% 29.91 in 2.0 mi West 11.5 mph - 0.01 in Snow Light Snow
3:44 PM 26.1 °F 16.8 °F 19.0 °F 75% 29.91 in 9.0 mi West 9.2 mph - 0.01 in   Mostly Cloudy
3:51 PM 25.0 °F 15.5 °F 17.1 °F 72% 30.01 in 10.0 mi West 9.2 mph - 0.01 in   Mostly Cloudy
4:51 PM 26.1 °F 17.6 °F 15.1 °F 63% 30.04 in 10.0 mi SW 8.1 mph - N/A   Partly Cloudy
5:51 PM 25.0 °F 18.1 °F 12.0 °F 58% 30.06 in 10.0 mi West 5.8 mph - N/A   Overcast
6:51 PM 23.0 °F 18.4 °F 12.9 °F 65% 30.11 in 10.0 mi West 3.5 mph - N/A   Mostly Cloudy
7:51 PM 19.9 °F - 12.9 °F 74% 30.16 in 10.0 mi Calm Calm - N/A   Mostly Cloudy
8:51 PM 19.9 °F - 14.0 °F 78% 30.17 in 10.0 mi Calm Calm - N/A   Overcast
9:51 PM 17.1 °F - 12.9 °F 84% 30.18 in 10.0 mi Calm Calm - N/A   Mostly Cloudy
10:51 PM 17.1 °F - 12.0 °F 81% 30.17 in 10.0 mi Calm Calm - N/A   Partly Cloudy
11:51 PM 15.1 °F - 10.9 °F 84% 30.20 in 10.0 mi Calm Calm - N/A   Overcast